Date String (YYYY-MM-DD hh:mm:ss) UTC,Instrument flags,absolute air pressure of the measurement (hPa),sample flow rate (lpm),inlet stack bypass flow (lpm),air temperature of the measurement (°C),ambient temperature measured by the external sensor (°C),aerosol sample conditioner tube jacket temperature (°C),OPC LED temperature (°C),internal box temperature (°C),relative humidity of the measurement (%),span deviation,mass concentration of particles derived from Lorenz-Mie calculation of OPC scattering (μg/m³),mass concentration of particles derived from Lorenz-Mie calculation of OPC scattering (μg/m³),mass concentration of particles derived from Lorenz-Mie calculation of OPC scattering (μg/m³)
DateTimeUTC,F1_M11,P_M11,Q1_M11,Q2_M11,T1_M11,T2_M11,T3_M11,T4_M11,T5_M11,U1_M11,ZSPAN_M11,X2_M11,X0_M11,X1_M11
2024-03-23 09:00:00,SystemResetWarning,0824.7,5.00,000.00,023.2,022.5,000.0,031.9,025.1,15.8,0000.0,0004.44,0019.39,0002.90
2024-03-23 09:01:00,SystemResetWarning,0824.8,5.01,000.00,023.2,022.4,000.0,031.9,025.1,15.9,0000.0,0004.43,0019.33,0002.91
2024-03-23 09:02:00,SystemResetWarning,0824.9,5.00,000.00,023.2,022.4,000.0,031.9,025.1,15.8,0000.0,0004.41,0019.91,0002.92
2024-03-23 09:03:00,SystemResetWarning,0824.9,5.00,000.00,023.2,022.4,000.0,031.9,025.1,15.5,0000.0,0004.40,0019.91,0002.96
2024-03-23 09:04:00,SystemResetWarning,0824.8,5.01,000.00,023.2,022.4,000.0,031.9,025.0,15.1,0000.0,0004.42,0018.31,0003.01
2024-03-23 09:05:00,SystemResetWarning,0824.8,5.00,000.00,023.2,022.4,000.0,031.9,025.0,15.6,0000.0,0004.53,0017.77,0003.11
2024-03-23 09:06:00,SystemResetWarning,0824.7,5.00,000.00,023.2,022.4,000.0,031.8,025.0,15.8,0000.0,0004.65,0017.48,0003.19
2024-03-23 09:07:00,SystemResetWarning,0824.7,5.00,000.00,023.2,022.4,000.0,031.8,025.0,15.6,0000.0,0004.74,0016.53,0003.25
2024-03-23 09:08:00,SystemResetWarning,0824.7,5.00,000.00,023.2,022.4,000.0,031.8,025.0,15.4,0000.0,0004.93,0016.84,0003.33
2024-03-23 09:09:00,SystemResetWarning,0824.7,5.00,000.00,023.1,022.4,000.0,031.8,025.0,15.4,0000.0,0005.03,0016.11,0003.43
2024-03-23 09:10:00,SystemResetWarning,0824.7,4.99,000.00,023.1,022.3,000.0,031.8,025.0,15.5,0000.0,0005.12,0015.49,0003.51
2024-03-23 09:11:00,SystemResetWarning,0824.6,4.99,000.00,023.1,022.3,000.0,031.8,025.0,15.8,0000.0,0005.16,0015.49,0003.59
2024-03-23 09:12:00,SystemResetWarning,0824.5,5.00,000.00,023.1,022.3,000.0,031.8,025.0,15.6,0000.0,0005.30,0015.88,0003.67
2024-03-23 09:13:00,SystemResetWarning,0824.6,5.01,000.00,023.1,022.3,000.0,031.8,025.0,15.5,0000.0,0005.42,0015.88,0003.75
2024-03-23 09:14:00,SystemResetWarning,0824.7,5.00,000.00,023.1,022.2,000.0,031.8,024.9,15.5,0000.0,0005.49,0015.03,0003.80
2024-03-23 09:15:00,SystemResetWarning,0824.7,4.99,000.00,023.1,022.1,000.0,031.8,024.9,15.7,0000.0,0005.56,0015.34,0003.86
2024-03-23 09:16:00,SystemResetWarning,0824.7,5.00,000.00,023.1,022.0,000.0,031.8,024.9,15.8,0000.0,0005.56,0015.62,0003.85
2024-03-23 09:17:00,SystemResetWarning,0824.7,5.01,000.00,023.0,022.0,000.0,031.7,024.9,15.9,0000.0,0005.48,0015.80,0003.83
2024-03-23 09:18:00,SystemResetWarning,0824.6,5.01,000.00,023.0,021.9,000.0,031.7,024.9,15.9,0000.0,0005.42,0016.75,0003.82
2024-03-23 09:19:00,SystemResetWarning,0824.6,5.00,000.00,023.0,021.9,000.0,031.7,024.9,16.0,0000.0,0005.36,0016.48,0003.79
2024-03-23 09:20:00,SystemResetWarning,0824.6,5.01,000.00,023.0,021.9,000.0,031.7,024.8,16.4,0000.0,0005.35,0016.81,0003.75
2024-03-23 09:21:00,SystemResetWarning,0824.7,5.00,000.00,023.0,021.9,000.0,031.7,024.8,17.2,0000.0,0005.36,0017.54,0003.68
2024-03-23 09:22:00,SystemResetWarning,0824.7,5.00,000.00,022.9,021.8,000.0,031.7,024.8,17.8,0000.0,0005.35,0018.89,0003.60
2024-03-23 09:23:00,SystemResetWarning,0824.7,5.00,000.00,022.9,021.8,000.0,031.7,024.7,18.0,0000.0,0005.29,0019.45,0003.54
2024-03-23 09:24:00,SystemResetWarning,0824.7,5.00,000.00,022.9,021.8,000.0,031.6,024.7,18.1,0000.0,0005.22,0019.21,0003.49
2024-03-23 09:25:00,SystemResetWarning,0824.6,4.99,000.00,022.9,021.8,000.0,031.6,024.8,18.0,0000.0,0005.19,0020.15,0003.45
2024-03-23 09:26:00,SystemResetWarning,0824.5,5.00,000.00,022.9,021.9,000.0,031.6,024.8,18.0,0000.0,0005.15,0020.94,0003.40
2024-03-23 09:27:00,SystemResetWarning,0824.5,5.00,000.00,022.9,021.9,000.0,031.6,024.8,18.0,0000.0,0005.03,0021.40,0003.36
2024-03-23 09:28:00,SystemResetWarning,0824.5,5.00,000.00,022.9,021.9,000.0,031.6,024.8,18.0,0000.0,0004.99,0020.94,0003.31
2024-03-23 09:29:00,SystemResetWarning,0824.6,4.99,000.00,022.9,022.0,000.0,031.6,024.8,17.9,0000.0,0004.99,0020.01,0003.27
2024-03-23 09:30:00,SystemResetWarning,0824.5,5.00,000.00,022.8,021.9,000.0,031.6,024.8,17.9,0000.0,0004.92,0020.63,0003.24
2024-03-23 09:31:00,SystemResetWarning,0824.4,5.00,000.00,022.8,021.9,000.0,031.6,024.7,17.8,0000.0,0004.83,0020.72,0003.21
2024-03-23 09:32:00,SystemResetWarning,0824.4,5.00,000.00,022.8,021.9,000.0,031.5,024.7,17.8,0000.0,0004.79,0021.59,0003.20
2024-03-23 09:33:00,SystemResetWarning,0824.4,5.00,000.00,022.8,021.8,000.0,031.5,024.7,17.7,0000.0,0004.76,0021.18,0003.23
2024-03-23 09:34:00,SystemResetWarning,0824.5,5.00,000.00,022.8,021.8,000.0,031.5,024.6,17.7,0000.0,0004.75,0021.13,0003.23
2024-03-23 09:35:00,SystemResetWarning,0824.6,5.00,000.00,022.8,021.7,000.0,031.5,024.6,17.6,0000.0,0004.71,0021.44,0003.23
2024-03-23 09:36:00,SystemResetWarning,0824.7,5.00,000.00,022.8,021.6,000.0,031.5,024.6,17.7,0000.0,0004.69,0021.18,0003.24
2024-03-23 09:37:00,SystemResetWarning,0824.7,5.00,000.00,022.7,021.6,000.0,031.5,024.6,17.7,0000.0,0004.68,0021.34,0003.25
2024-03-23 09:38:00,SystemResetWarning,0824.6,5.00,000.00,022.7,021.6,000.0,031.5,024.6,17.8,0000.0,0004.75,0021.02,0003.26
2024-03-23 09:39:00,SystemResetWarning,0824.4,5.00,000.00,022.7,021.6,000.0,031.5,024.6,17.9,0000.0,0004.79,0021.20,0003.27
2024-03-23 09:40:00,SystemResetWarning,0824.4,5.00,000.00,022.7,021.6,000.0,031.4,024.6,17.9,0000.0,0004.75,0021.77,0003.27
2024-03-23 09:41:00,SystemResetWarning,0824.5,5.00,000.00,022.7,021.6,000.0,031.4,024.6,17.8,0000.0,0004.80,0021.25,0003.27
2024-03-23 09:42:00,SystemResetWarning,0824.6,5.00,000.00,022.7,021.6,000.0,031.4,024.6,17.8,0000.0,0004.82,0020.81,0003.29
2024-03-23 09:43:00,SystemResetWarning,0824.7,5.00,000.00,022.7,021.7,000.0,031.4,024.6,17.6,0000.0,0004.78,0020.42,0003.28
2024-03-23 09:44:00,SystemResetWarning,0824.7,5.00,000.00,022.7,021.7,000.0,031.4,024.6,17.6,0000.0,0004.80,0019.68,0003.28
2024-03-23 09:45:00,SystemResetWarning,0824.7,5.00,000.00,022.7,021.7,000.0,031.4,024.6,17.6,0000.0,0004.81,0019.98,0003.27
2024-03-23 09:46:00,SystemResetWarning,0824.7,4.99,000.00,022.7,021.7,000.0,031.4,024.6,17.5,0000.0,0004.80,0020.35,0003.25
2024-03-23 09:47:00,SystemResetWarning,0824.6,5.00,000.00,022.7,021.7,000.0,031.4,024.5,17.6,0000.0,0004.74,0019.76,0003.21
2024-03-23 09:48:00,SystemResetWarning,0824.5,4.99,000.00,022.6,021.7,000.0,031.4,024.5,17.7,0000.0,0004.64,0018.78,0003.16
2024-03-23 09:49:00,SystemResetWarning,0824.5,5.01,000.00,022.6,021.6,000.0,031.3,024.5,17.7,0000.0,0004.56,0018.51,0003.13
2024-03-23 09:50:00,SystemResetWarning,0824.5,5.01,000.00,022.6,021.6,000.0,031.3,024.5,17.7,0000.0,0004.47,0018.03,0003.07
2024-03-23 09:51:00,SystemResetWarning,0824.6,5.00,000.00,022.6,021.6,000.0,031.3,024.5,17.7,0000.0,0004.41,0019.64,0003.00
2024-03-23 09:52:00,SystemResetWarning,0824.6,4.99,000.00,022.6,021.5,000.0,031.3,024.4,17.6,0000.0,0004.30,0019.89,0002.92
2024-03-23 09:53:00,SystemResetWarning,0824.7,5.00,000.00,022.6,021.5,000.0,031.3,024.4,17.6,0000.0,0004.19,0019.71,0002.84
2024-03-23 09:54:00,SystemResetWarning,0824.6,5.00,000.00,022.6,021.6,000.0,031.3,024.5,17.6,0000.0,0004.17,0018.59,0002.79
2024-03-23 09:55:00,SystemResetWarning,0824.5,5.00,000.00,022.6,021.6,000.0,031.3,024.5,17.7,0000.0,0004.07,0018.96,0002.70
2024-03-23 09:56:00,SystemResetWarning,0824.5,5.00,000.00,022.6,021.6,000.0,031.3,024.4,17.7,0000.0,0003.96,0019.26,0002.63
2024-03-23 09:57:00,SystemResetWarning,0824.4,5.00,000.00,022.6,021.6,000.0,031.3,024.4,17.7,0000.0,0003.93,0018.91,0002.57
2024-03-23 09:58:00,SystemResetWarning,0824.4,5.01,000.00,022.5,021.6,000.0,031.2,024.4,17.6,0000.0,0003.93,0018.88,0002.56
2024-03-23 09:59:00,SystemResetWarning,0824.4,5.01,000.00,022.5,021.6,000.0,031.2,024.4,17.7,0000.0,0003.96,0019.44,0002.57
